[[{"header":{"parameterUnit":"m.s-1","parameterCategory":1,"la1":30.2991,"la2":30.254,"lo1":-89.0895,"lo2":-89.0444,"dy":0.0017,"dx":0.0017,"nx":28,"ny":28,"refTime":"2024-12-13T03:00:00:Z","depth":0,"parameterNumber":2,"parameterNumberName":"U-component_of_WINDS"},"data":[0,0,0,0,0,0,0,0,0,0,0,0,0,0,0,0,0,0,0,0,0,0,0,0,0,0,0,0,0,0,0,0,0,0,0,0,0,0,0,0,0,0,0,0,0,0,0,0,0,0,0,0,0,0,0,0,0,0,-6.592,-6.592,0,-6.5935,-6.5935,-6.5936,-6.5755,-6.575,-6.5745,-6.5741,-6.576,-6.5765,-6.577,0,0,0,0,0,0,0,0,0,0,0,0,0,-6.5736,-6.574,-6.592,-6.592,-6.592,-6.5935,-6.5935,-6.5936,-6.5756,-6.575,-6.5744,-6.5738,-6.5758,-6.5764,-6.577,0,0,0,0,0,0,0,0,0,0,0,0,0,-6.579,-6.5741,-6.5919,-6.5832,-6.5824,-6.5935,-6.5935,-6.5936,-6.5757,-6.575,-6.5743,-6.5736,-6.5756,-6.5763,-6.5771,-6.5967,0,0,-6.5794,-6.5798,0,0,0,0,0,0,0,0,-6.5787,-6.5797,-6.5845,-6.5838,-6.583,-6.5836,-6.5877,-6.5946,-6.5759,-6.5783,-6.5741,-6.5732,-6.5791,-6.5795,-6.5815,-6.5968,-6.5969,-6.5795,-6.58,-6.5803,-6.5805,0,0,0,0,0,0,0,-6.5784,-6.5795,-6.5926,-6.5846,-6.5837,-6.5793,-6.5792,-6.589,-6.5829,-6.578,-6.5767,-6.5772,-6.5786,-6.5808,-6.5814,-6.5969,-6.5795,-6.5802,-6.5806,-6.5809,-6.6282,-6.629,0,0,0,0,0,0,-6.5791,-6.5793,-6.5925,-6.5926,-6.579,-6.5802,-6.5801,-6.5841,-6.5827,-6.5818,-6.5778,-6.5763,-6.5798,-6.5805,-6.5814,-6.6041,-6.5803,-6.581,-6.5815,-6.6274,-6.6284,-6.6293,0,0,0,0,0,0,-6.5788,-6.5805,-6.5925,-6.5856,-6.5868,-6.5813,-6.5859,-6.5846,-6.5867,-6.5825,-6.5813,-6.5812,-6.5793,-6.5803,-6.593,-6.6039,-6.5814,-6.5821,-6.6265,-6.6277,-6.6288,-6.6499,0,0,0,0,0,0,-6.5784,-6.5805,-6.5878,-6.5859,-6.5872,-6.6041,-6.5866,-6.5851,-6.5881,-6.5862,-6.5854,-6.5845,-6.5788,-6.5919,-6.5937,-6.6046,-6.5827,-6.6255,-6.6271,-6.6285,-6.6482,-6.6517,-6.6546,0,0,0,0,0,-6.5778,-6.5938,-6.5883,-6.59,-6.5963,-6.6047,-6.6055,-6.5984,-6.5891,-6.5964,-6.5937,-6.5845,-6.6025,-6.5934,-6.5953,-6.6065,-6.6248,-6.6266,-6.6284,-6.6467,-6.651,-6.6545,0,0,0,0,0,0,-6.5972,-6.5934,-6.5873,-6.6031,-6.6044,-6.6016,-6.6107,-6.6032,-6.6072,-6.6052,-6.5964,-6.5964,-6.6105,-6.6098,-6.5997,-6.6254,-6.612,-6.6142,-6.6253,-6.6293,-6.6325,-6.6323,-6.5833,0,0,0,0,0,-6.6034,-6.6104,-6.6067,-6.6211,-6.622,-6.6163,-6.6197,-6.6142,-6.6151,-6.6156,-6.6138,-6.6152,-6.621,-6.6251,-6.6303,-6.648,-6.6475,-6.6567,-6.6599,-6.6626,-6.6646,-6.6738,-6.6778,-6.6352,-6.6351,-6.6351,0,0,-6.6161,-6.6149,-6.6199,-6.6249,-6.6252,-6.6328,-6.6169,-6.6256,-6.6311,-6.6169,-6.6287,-6.6275,-6.6284,-6.6437,-6.6503,-6.6435,-6.6763,-6.6648,-6.667,-6.6676,-6.676,-6.6801,-6.6837,-6.6364,-6.6361,-6.636,0,0,-6.6432,-6.643,-6.6549,-6.6555,-6.6561,-6.6522,-6.6551,-6.6535,-6.6521,-6.6638,-6.6533,-6.6598,-6.6702,-6.6712,-6.6732,-6.7006,-6.6924,-6.7026,-6.7194,-6.7284,-6.7318,-6.7347,-6.7444,-6.748,-6.7046,-6.7047,-6.7047,0,-6.659,-6.6698,-6.662,-6.6713,-6.6738,-6.6613,-6.6732,-6.6743,-6.6767,-6.6787,-6.671,-6.6837,-6.6835,-6.6987,-6.7054,-6.7074,-6.7104,-6.7026,-6.7319,-6.7348,-6.7374,-6.7466,-6.7503,-6.7059,-6.7058,-6.7057,-6.7055,0,-6.6892,-6.6969,-6.7064,-6.7089,-6.7125,-6.7232,-6.7169,-6.7215,-6.7157,-6.7127,-6.7247,-6.724,-6.7287,-6.732,-6.7265,-6.7465,-6.7422,-6.7335,-6.7198,-6.7429,-6.7513,-6.7548,-6.7077,-6.7072,-6.7069,-6.7066,0,0,-6.7285,-6.7265,-6.7301,-6.731,-6.7308,-6.7366,-6.7467,-6.7513,-6.7554,-6.7575,-6.7657,-6.7748,-6.7666,-6.7688,-6.7632,-6.7712,-6.7929,-6.7614,-6.7612,-6.7672,-6.8149,-6.8214,-6.8256,-6.7875,-6.7881,-6.7886,-6.8148,0,-6.7548,-6.7718,-6.7649,-6.7825,-6.7895,-6.7777,-6.7865,-6.7874,-6.7848,-6.7904,-6.7875,-6.7941,-6.7828,-6.784,-6.7914,-6.7887,-6.8024,-6.7868,-6.795,-6.7954,-6.7951,-6.8301,-6.837,-6.8617,-6.818,-6.8186,-6.819,0,-6.7877,-6.791,-6.8093,-6.8077,-6.8104,-6.8184,-6.822,-6.8275,-6.8283,-6.8258,-6.8283,-6.821,-6.8307,-6.8172,-6.8306,-6.8201,-6.8231,-6.8223,-6.8231,-6.8235,-6.8085,-6.8314,-6.8695,-6.8732,-6.8241,-6.8237,-6.8233,0,-6.8144,-6.8235,-6.8355,-6.8367,-6.8352,-6.8411,-6.8408,-6.8408,-6.844,-6.8472,-6.8491,-6.8535,-6.8559,-6.8595,-6.8536,-6.8443,-6.8678,-6.8538,-6.866,-6.8662,-6.8714,-6.8712,-6.9105,-6.8736,-6.8735,-6.8735,-6.8734,0,-6.8444,-6.856,-6.8475,-6.8549,-6.8676,-6.8597,-6.8725,-6.8708,-6.8709,-6.8779,-6.868,-6.8747,-6.8665,-6.8725,-6.8679,-6.8796,-6.8808,-6.8791,-6.8778,-6.88,-6.8802,-6.8817,-6.8798,-6.8744,-6.8742,-6.874,-6.8739,0,-6.8764,-6.8711,-6.8835,-6.8811,-6.8807,-6.8902,-6.8881,-6.8949,-6.8916,-6.9005,-6.9021,-6.897,-6.9035,-6.898,-6.9043,-6.9012,-6.9168,-6.913,-6.9165,-6.9154,-6.9279,-6.9268,-6.9695,-6.9747,-6.9347,-6.935,-6.9354,0,-6.8958,-6.9044,-6.9029,-6.9068,-6.907,-6.9135,-6.9166,-6.9092,-6.9129,-6.9143,-6.921,-6.9266,-6.9307,-6.9416,-6.9385,-6.9433,-6.9395,-6.9542,-6.9402,-6.9421,-6.9396,-6.9391,-6.9399,-6.957,-6.9575,-6.9579,-6.9582,0,-6.9308,-6.9277,-6.9326,-6.9366,-6.9406,-6.9435,-6.9455,-6.9493,-6.9417,-6.9464,-6.9528,-6.956,-6.9624,-6.9681,-6.9719,-6.9715,-6.9637,-6.9626,-6.9657,-6.9679,-6.9696,-6.9687,-6.9241,-6.9616,-6.9613,-6.961,-6.9609,-6.9607,-6.9569,-6.964,-6.964,-6.9698,-6.9705,-6.9727,-6.9789,-6.9764,-6.9816,-6.9861,-6.9815,-6.9893,-6.9898,-6.994,-6.9946,-7.0007,-6.9946,-6.9991,-7.0002,-7.0014,-7.0031,-6.9687,-7.0014,-7.0013,-7.0012,-7.0011,-7.001,0,-6.9913,-6.9907,-6.9961,-6.9992,-7.0038,-6.9959,-6.9977,-7.0021,-7.0091,-7.0101,-7.0143,-7.0218,-7.0273,-7.0246,-7.0294,-7.0347,-7.0312,-7.0362,-7.0357,-7.0357,-7.0083,-7.0052,-7.039,-7.039,-7.039,-7.0389,-7.0389,-7.0389,-7.0097,-7.0212,-7.0182,-7.03,-7.0293,-7.0369,-7.0386,-7.0405,-7.0413,-7.05,-7.0545,-7.0527,-7.0523,-7.0569,-7.0616,-7.0607,-7.0628,-7.0692,-7.067,-7.0414,-7.0377,-7.0341,-7.031,-7.0697,-7.0698,-7.0938,-7.094,-7.0942]},{"header":{"parameterUnit":"m.s-1","parameterCategory":1,"la1":30.2991,"la2":30.254,"lo1":-89.0895,"lo2":-89.0444,"dy":0.0017,"dx":0.0017,"nx":28,"ny":28,"refTime":"2024-12-13T03:00:00:Z","depth":0,"parameterNumber":3,"parameterNumberName":"V-component_of_WINDS"},"data":[0,0,0,0,0,0,0,0,0,0,0,0,0,0,0,0,0,0,0,0,0,0,0,0,0,0,0,0,0,0,0,0,0,0,0,0,0,0,0,0,0,0,0,0,0,0,0,0,0,0,0,0,0,0,0,0,0,0,-1.7915,-1.7915,0,-1.792,-1.792,-1.792,-1.7893,-1.7892,-1.7891,-1.789,-1.7894,-1.7895,-1.7896,0,0,0,0,0,0,0,0,0,0,0,0,0,-1.7882,-1.7883,-1.7915,-1.7915,-1.7916,-1.792,-1.792,-1.792,-1.7893,-1.7892,-1.7891,-1.789,-1.7894,-1.7895,-1.7896,0,0,0,0,0,0,0,0,0,0,0,0,0,-1.7893,-1.7883,-1.7915,-1.7903,-1.7902,-1.792,-1.792,-1.792,-1.7893,-1.7892,-1.7891,-1.789,-1.7894,-1.7895,-1.7896,-1.7926,0,0,-1.79,-1.79,0,0,0,0,0,0,0,0,-1.7892,-1.7894,-1.7904,-1.7904,-1.7902,-1.7905,-1.7909,-1.7922,-1.7893,-1.7896,-1.789,-1.7889,-1.7898,-1.7899,-1.7903,-1.7927,-1.7927,-1.79,-1.79,-1.7901,-1.7901,0,0,0,0,0,0,0,-1.7891,-1.7893,-1.7917,-1.7905,-1.7903,-1.7896,-1.7896,-1.7912,-1.7904,-1.7896,-1.7894,-1.7895,-1.7898,-1.7901,-1.7902,-1.7927,-1.79,-1.7901,-1.7902,-1.7902,-1.7974,-1.7975,0,0,0,0,0,0,-1.7892,-1.7893,-1.7917,-1.7917,-1.7894,-1.7898,-1.7898,-1.7905,-1.7903,-1.7902,-1.7896,-1.7894,-1.79,-1.7901,-1.7902,-1.7936,-1.7901,-1.7902,-1.7903,-1.7973,-1.7974,-1.7975,0,0,0,0,0,0,-1.7892,-1.7895,-1.7917,-1.7905,-1.7907,-1.7899,-1.7908,-1.7906,-1.7909,-1.7903,-1.7902,-1.7901,-1.7899,-1.7901,-1.792,-1.7936,-1.7903,-1.7904,-1.7971,-1.7973,-1.7975,-1.8006,0,0,0,0,0,0,-1.7891,-1.7895,-1.7907,-1.7905,-1.7908,-1.7935,-1.7909,-1.7907,-1.7912,-1.7909,-1.7908,-1.7907,-1.7898,-1.7918,-1.7921,-1.7937,-1.7905,-1.797,-1.7972,-1.7974,-1.8003,-1.8008,-1.8013,0,0,0,0,0,-1.789,-1.7916,-1.7908,-1.7911,-1.7923,-1.7936,-1.7938,-1.7927,-1.7913,-1.7925,-1.792,-1.7907,-1.7934,-1.7921,-1.7924,-1.794,-1.7969,-1.7971,-1.7974,-1.8001,-1.8007,-1.8013,0,0,0,0,0,0,-1.792,-1.7915,-1.7906,-1.7932,-1.7935,-1.7932,-1.7946,-1.7935,-1.7941,-1.7938,-1.7925,-1.7925,-1.7946,-1.7945,-1.793,-1.7969,-1.7949,-1.7952,-1.7968,-1.7974,-1.7979,-1.7978,-1.7906,0,0,0,0,0,-1.793,-1.7941,-1.7937,-1.796,-1.7962,-1.7954,-1.7959,-1.7951,-1.7953,-1.7954,-1.7951,-1.7953,-1.7962,-1.7968,-1.7976,-1.8003,-1.8002,-1.8016,-1.802,-1.8024,-1.8027,-1.8039,-1.8045,-1.7984,-1.7984,-1.7984,0,0,-1.795,-1.7949,-1.7957,-1.7966,-1.7967,-1.7979,-1.7955,-1.7969,-1.7977,-1.7956,-1.7974,-1.7972,-1.7973,-1.7996,-1.8006,-1.7996,-1.8044,-1.8028,-1.8031,-1.8032,-1.8043,-1.8049,-1.8054,-1.7986,-1.7985,-1.7985,0,0,-1.7992,-1.7993,-1.8012,-1.8013,-1.8014,-1.8008,-1.8013,-1.8011,-1.8009,-1.8027,-1.8011,-1.802,-1.8036,-1.8037,-1.804,-1.8081,-1.8068,-1.8084,-1.8108,-1.812,-1.8125,-1.8129,-1.8142,-1.8147,-1.8087,-1.8087,-1.8087,0,-1.8017,-1.8034,-1.8023,-1.8037,-1.8041,-1.8022,-1.804,-1.8042,-1.8046,-1.8049,-1.8037,-1.8056,-1.8056,-1.8077,-1.8087,-1.8091,-1.8094,-1.8083,-1.8125,-1.8129,-1.8133,-1.8145,-1.8151,-1.8088,-1.8088,-1.8088,-1.8088,0,-1.8063,-1.8076,-1.809,-1.8094,-1.81,-1.8116,-1.8106,-1.8113,-1.8104,-1.8099,-1.8117,-1.8116,-1.8122,-1.8127,-1.8119,-1.8147,-1.8141,-1.8128,-1.8107,-1.8141,-1.8152,-1.8157,-1.8091,-1.809,-1.809,-1.8089,0,0,-1.8125,-1.8121,-1.8127,-1.8128,-1.8127,-1.8136,-1.8151,-1.8157,-1.8162,-1.8166,-1.8177,-1.819,-1.8177,-1.818,-1.8172,-1.8183,-1.8213,-1.8168,-1.8168,-1.8175,-1.8243,-1.8252,-1.8258,-1.8205,-1.8206,-1.8207,-1.8242,0,-1.8165,-1.819,-1.818,-1.8206,-1.8216,-1.8197,-1.821,-1.8211,-1.8206,-1.8214,-1.8209,-1.8218,-1.8201,-1.8203,-1.8213,-1.8208,-1.8226,-1.8205,-1.8214,-1.8215,-1.8213,-1.8264,-1.8274,-1.8307,-1.8247,-1.8248,-1.8248,0,-1.8216,-1.822,-1.8246,-1.8242,-1.8246,-1.8258,-1.8262,-1.827,-1.8269,-1.8265,-1.8268,-1.8257,-1.827,-1.825,-1.8267,-1.8253,-1.8256,-1.8254,-1.8255,-1.8255,-1.8233,-1.8263,-1.8318,-1.8322,-1.8255,-1.8255,-1.8254,0,-1.8256,-1.8269,-1.8285,-1.8287,-1.8283,-1.8291,-1.829,-1.8289,-1.8293,-1.8296,-1.8298,-1.8303,-1.8306,-1.831,-1.8299,-1.8286,-1.8318,-1.8298,-1.8314,-1.8314,-1.832,-1.832,-1.8375,-1.8324,-1.8324,-1.8324,-1.8324,0,-1.8301,-1.8318,-1.8303,-1.8314,-1.8331,-1.8319,-1.8336,-1.8333,-1.8332,-1.8341,-1.8326,-1.8334,-1.8321,-1.8328,-1.832,-1.8334,-1.8336,-1.8332,-1.833,-1.8333,-1.8333,-1.8334,-1.8331,-1.8326,-1.8325,-1.8325,-1.8325,0,-1.8349,-1.834,-1.8357,-1.8352,-1.8351,-1.8364,-1.8359,-1.8368,-1.8362,-1.8373,-1.8375,-1.8366,-1.8373,-1.8363,-1.837,-1.8365,-1.8384,-1.8379,-1.8384,-1.8382,-1.8398,-1.8396,-1.8455,-1.8461,-1.8408,-1.8408,-1.8409,0,-1.8378,-1.839,-1.8385,-1.839,-1.8389,-1.8397,-1.8401,-1.8389,-1.8393,-1.8393,-1.8401,-1.8407,-1.8411,-1.8423,-1.8417,-1.8421,-1.8415,-1.8435,-1.8416,-1.8418,-1.8414,-1.8413,-1.8413,-1.8439,-1.844,-1.844,-1.8441,0,-1.8429,-1.8424,-1.8429,-1.8433,-1.8438,-1.844,-1.8441,-1.8446,-1.8433,-1.8439,-1.8445,-1.8448,-1.8454,-1.846,-1.8463,-1.8461,-1.8448,-1.8447,-1.8451,-1.8453,-1.8455,-1.8453,-1.8394,-1.8446,-1.8445,-1.8445,-1.8444,-1.8444,-1.8467,-1.8476,-1.8474,-1.8481,-1.848,-1.8481,-1.8489,-1.8484,-1.8489,-1.8493,-1.8485,-1.8494,-1.8492,-1.8494,-1.8493,-1.8499,-1.849,-1.8496,-1.8497,-1.8499,-1.85,-1.8455,-1.85,-1.85,-1.85,-1.85,-1.8499,0,-1.8516,-1.8514,-1.852,-1.8522,-1.8526,-1.8514,-1.8515,-1.8519,-1.8527,-1.8526,-1.853,-1.8537,-1.8542,-1.8536,-1.8539,-1.8545,-1.8539,-1.8546,-1.8545,-1.8545,-1.8509,-1.8505,-1.8551,-1.8551,-1.8551,-1.8551,-1.8551,-1.8551,-1.8543,-1.8557,-1.8551,-1.8565,-1.8562,-1.857,-1.8571,-1.8571,-1.857,-1.8579,-1.8583,-1.8579,-1.8575,-1.8578,-1.8582,-1.858,-1.8582,-1.859,-1.8586,-1.8553,-1.8548,-1.8543,-1.8538,-1.8591,-1.8591,-1.8621,-1.8621,-1.8622]}]]